Theta_e
327 328 325 322 321 319 319 321 324 326 328 332 338 334 325 328 335 332 328 328 327 324 321 318 315 314 312 311 310 309 308 308 307 306 306 305 305 305 304 304 304 304 304 305 306 306 307 308 310 313 315 317 319 323 324 325 325 326 327 327 325 325 325 326 326 326 327 328 328 327 326 326 327 327 327 327 327 327 327 325 323 322 321 320 320 320 321
326 325 322 320 319 318 316 317 318 320 325 327 329 328 325 327 329 327 323 321 318 317 316 314 312 310 309 308 307 307 306 306 306 305 305 304 304 303 303 303 303 303 303 304 304 305 305 305 307 309 312 315 317 320 322 323 324 325 325 325 325 324 325 326 326 326 326 327 327 326 325 326 327 326 326 326 326 326 326 324 323 321 319 318 318 318 319
324 322 320 318 317 316 316 316 315 317 321 323 324 324 324 325 324 320 318 317 316 313 312 310 309 308 307 306 306 305 305 305 305 304 304 303 303 302 302 302 302 302 302 303 303 304 304 304 305 306 309 313 315 318 320 321 323 325 325 325 325 324 325 325 325 326 325 325 326 326 325 325 325 324 325 326 325 325 325 323 322 320 317 316 317 318 318
324 320 318 317 317 318 318 317 315 316 320 322 322 321 321 323 323 320 318 318 315 311 309 308 307 307 306 305 305 304 304 303 304 303 303 302 302 302 301 301 301 301 301 302 302 303 303 303 303 304 306 309 311 314 317 320 322 324 324 325 325 324 324 324 324 325 325 324 324 324 324 324 323 323 324 325 325 325 324 322 321 319 317 317 317 318 318
324 321 319 319 322 325 324 318 314 315 318 319 319 318 318 320 321 321 320 317 313 309 308 307 306 305 305 305 304 304 303 302 302 302 302 301 301 301 301 300 301 300 300 301 301 301 302 302 303 303 305 306 307 309 313 318 320 322 323 323 323 323 323 323 324 324 324 323 323 323 323 323 322 322 324 325 325 324 323 322 320 318 318 318 318 319 319
325 322 321 322 324 325 322 314 311 313 316 316 316 316 315 316 317 316 314 312 309 308 307 306 305 304 304 303 303 303 303 302 301 301 301 301 301 301 300 300 300 300 300 300 300 301 301 301 302 303 304 304 306 307 310 313 316 318 320 321 321 322 322 322 323 323 323 323 323 322 322 322 322 322 323 323 323 323 322 321 319 318 318 319 319 320 321
325 320 320 324 324 320 315 312 310 311 313 313 314 314 313 313 312 311 310 308 307 306 305 304 304 303 302 302 302 302 302 302 301 301 300 300 300 300 299 299 300 300 300 300 300 300 300 301 302 302 303 303 304 305 306 308 310 312 316 318 319 320 320 321 322 322 322 322 322 322 322 322 322 322 322 322 322 321 321 320 319 319 319 319 320 320 321
321 318 318 321 320 314 312 312 310 311 313 313 314 314 313 311 310 309 308 307 305 305 304 303 303 302 301 302 302 302 301 301 301 300 300 299 299 299 299 299 299 299 299 299 300 300 300 300 301 302 302 302 303 304 304 305 306 308 311 313 315 317 319 320 320 321 320 321 321 321 321 321 321 321 321 321 321 320 320 320 319 319 319 319 319 319 319
319 317 316 315 315 313 312 312 310 310 312 312 312 314 313 311 310 308 306 305 305 304 304 303 303 302 301 301 302 302 301 300 300 300 299 299 299 299 299 299 299 299 299 299 299 300 299 300 300 301 301 302 302 303 303 303 304 305 306 308 310 313 316 318 319 320 320 320 320 320 321 320 319 320 320 320 320 320 319 318 318 318 318 318 317 318 317
316 315 315 314 316 316 313 310 308 308 310 310 310 313 313 310 309 308 306 305 304 303 303 303 304 304 303 302 301 302 301 301 300 300 300 299 299 299 299 299 299 299 299 299 299 299 300 299 299 300 301 301 302 302 302 302 302 303 303 304 306 308 311 315 318 319 319 320 320 319 320 320 319 319 319 319 319 319 319 318 317 317 317 317 317 317 317
315 316 317 316 316 314 310 308 306 306 309 309 310 314 315 310 308 308 306 305 304 304 304 304 305 306 304 301 301 301 300 300 300 300 300 300 299 299 299 299 299 299 298 298 299 300 300 300 299 299 300 300 301 301 301 301 301 302 302 303 303 304 307 311 316 318 319 320 320 319 319 319 319 319 319 319 319 319 319 319 318 317 317 317 316 316 316
316 316 316 313 312 310 307 306 306 306 307 308 312 319 316 309 307 309 307 306 306 306 305 305 305 305 303 301 300 300 298 298 298 299 300 300 300 300 300 299 299 299 298 298 299 299 299 299 300 300 299 299 300 300 301 301 301 301 301 302 302 303 304 307 311 315 318 319 320 320 319 318 318 319 319 319 319 319 319 319 318 318 317 317 316 316 316
313 313 312 311 309 307 305 304 304 305 307 310 315 318 312 306 306 307 306 305 305 304 303 302 302 301 301 300 299 298 298 298 298 299 299 300 300 300 300 300 300 300 299 299 298 298 299 299 299 300 300 299 299 300 300 301 301 301 301 301 302 302 303 304 306 309 313 317 319 319 319 319 320 320 320 319 319 319 319 318 318 317 317 316 316 315 315
311 310 310 311 310 306 303 304 304 305 310 314 313 310 305 303 304 304 303 302 301 300 300 300 299 299 299 299 298 298 298 298 298 299 300 300 300 300 300 300 300 300 300 299 299 299 298 298 299 300 300 300 299 299 300 300 301 301 301 301 302 303 304 304 303 304 306 311 315 318 319 319 320 320 320 320 320 320 320 319 318 317 315 314 312 310 309
311 311 310 312 312 305 302 304 306 307 310 310 306 303 303 302 301 301 301 300 299 299 299 298 298 298 299 298 298 298 298 298 298 299 299 299 300 300 300 300 300 300 300 300 300 299 299 299 299 299 299 299 299 299 300 300 301 301 301 301 301 302 302 303 304 303 302 304 307 311 313 316 318 318 318 319 319 319 319 318 316 313 310 309 307 307 306
311 313 310 308 307 303 302 305 307 306 306 305 303 302 302 301 300 299 299 299 299 299 299 298 298 298 298 298 298 297 297 297 297 298 299 299 299 299 300 300 300 300 300 300 299 299 299 299 299 300 299 299 299 299 300 300 300 301 301 301 301 300 300 300 301 302 302 301 302 304 306 309 313 315 316 317 318 318 317 315 311 308 307 306 306 306 306
306 307 305 303 303 302 303 304 304 303 303 302 301 301 300 300 300 299 299 299 299 299 299 299 298 297 298 298 298 298 297 297 297 298 299 299 299 299 299 299 299 300 299 299 299 299 299 299 299 300 300 300 299 299 299 300 301 301 301 301 302 302 301 299 298 298 299 299 300 302 304 306 307 309 310 313 315 316 317 313 308 307 307 306 305 305 305
304 303 302 302 302 303 303 302 302 301 301 300 300 300 300 300 300 300 300 300 300 300 299 299 298 298 298 298 299 299 298 297 297 298 298 299 300 299 299 299 299 299 299 299 299 299 299 299 299 299 300 300 300 300 299 299 300 301 302 302 302 303 302 301 300 298 297 297 297 299 302 304 304 305 306 308 310 312 314 311 308 307 306 304 303 303 302
304 304 302 302 302 302 302 302 301 301 300 300 300 300 300 300 300 301 301 300 300 300 300 299 299 299 300 300 300 300 299 298 298 298 298 299 299 299 299 299 299 299 299 299 299 299 299 299 299 299 299 299 300 300 300 299 299 300 301 302 302 302 303 302 302 301 299 297 296 296 298 300 302 303 304 305 306 307 308 308 306 305 304 302 301 300 299
304 304 302 301 301 301 302 302 301 301 301 300 300 300 300 300 300 300 300 300 300 300 300 299 300 300 300 301 301 300 299 299 298 298 298 299 299 299 299 299 299 299 299 299 299 298 298 299 299 299 299 299 299 300 300 299 299 300 300 300 301 302 302 302 302 302 300 299 297 296 296 297 299 300 302 303 304 304 304 304 304 303 302 301 300 299 299
303 303 302 302 301 301 301 301 301 301 301 301 300 300 300 300 300 300 300 299 299 299 299 299 299 300 301 300 299 299 298 297 297 297 297 297 298 299 299 298 299 298 298 298 298 298 298 299 299 299 299 299 299 299 300 300 300 300 300 301 301 301 302 302 302 302 302 300 299 297 297 297 297 298 299 300 301 301 301 301 302 301 300 299 299 299 298
304 304 303 303 302 302 301 301 300 300 300 300 300 300 300 300 299 299 299 299 298 298 298 298 299 300 300 297 296 296 296 295 296 296 296 296 297 298 299 298 298 298 298 298 298 298 298 298 298 298 298 298 298 299 299 300 300 301 301 301 301 301 302 302 302 302 302 301 300 299 298 297 297 298 298 299 299 299 299 299 299 299 299 298 298 298 298
304 304 303 302 302 302 301 300 300 300 300 300 299 299 299 299 298 298 298 298 298 298 298 298 298 297 296 295 295 294 294 295 295 295 295 295 296 298 298 298 297 297 298 298 298 298 298 298 298 298 298 298 299 299 299 299 300 300 301 301 301 301 301 301 302 301 301 301 301 300 299 298 297 297 298 298 299 299 298 298 298 298 298 298 298 298 298
303 303 302 301 301 301 300 300 300 300 300 299 299 299 299 298 298 298 297 297 298 298 297 297 297 296 295 295 295 295 294 295 295 295 295 295 295 297 298 298 297 297 298 298 297 297 297 297 297 297 298 298 298 299 299 299 299 300 300 300 300 299 300 300 301 301 301 301 300 300 300 298 297 297 297 298 298 298 298 298 298 298 298 298 297 297 298
302 302 301 301 301 301 300 300 300 300 300 300 299 299 299 298 298 298 297 297 297 298 296 296 296 296 295 295 295 295 295 295 295 295 295 295 295 296 296 297 297 297 297 298 297 297 297 297 297 297 298 298 298 298 298 299 299 299 300 300 299 299 299 299 299 300 300 300 300 300 300 299 298 298 298 297 297 297 297 298 298 298 298 298 298 298 298
302 301 301 301 301 301 300 300 300 300 300 299 299 299 299 299 298 298 298 298 297 297 297 296 296 296 295 295 296 296 295 295 295 295 295 295 295 295 295 296 297 297 297 297 297 297 297 297 297 297 297 297 298 298 298 298 298 298 299 299 299 299 298 298 299 299 300 300 300 300 300 299 299 298 298 298 297 297 297 297 297 297 297 297 298 298 298
301 301 301 301 301 301 301 301 300 300 299 299 299 299 299 300 299 298 298 297 297 297 297 297 297 297 296 296 296 296 296 295 295 295 295 295 295 295 296 297 297 298 297 297 297 297 297 297 296 296 297 297 298 298 298 297 297 297 297 298 299 299 298 298 299 299 299 299 300 300 300 300 299 299 298 298 298 298 297 297 296 296 296 297 297 298 298
302 301 301 301 302 301 301 300 299 299 299 299 299 299 299 298 297 297 296 296 296 296 297 297 297 297 297 297 297 296 296 295 295 295 296 295 295 295 297 297 297 297 297 297 297 297 297 297 296 296 296 297 297 297 298 298 297 297 297 297 298 299 298 298 298 299 299 299 299 299 300 299 299 299 298 298 298 297 297 296 296 295 295 296 297 298 298
301 301 300 299 299 299 298 299 299 299 299 299 299 299 298 297 298 298 296 296 296 296 296 296 297 297 297 297 297 296 295 295 295 295 295 294 294 295 297 297 297 297 297 297 297 297 297 296 296 296 296 297 297 297 297 298 298 297 297 297 297 297 298 298 298 298 298 298 298 299 299 298 298 298 298 298 298 298 297 297 296 295 295 296 297 298 297
301 301 301 299 298 298 298 300 300 299 299 297 297 297 297 297 299 300 298 296 296 296 296 297 297 296 296 296 296 296 295 295 295 294 293 292 293 295 297 297 297 297 297 297 297 297 296 296 296 296 296 296 297 297 297 297 297 297 297 297 297 297 297 297 297 297 298 298 298 298 298 297 297 298 298 298 298 298 298 297 295 295 295 295 296 297 297
301 302 303 301 300 300 301 301 300 300 299 297 296 297 298 297 299 301 299 295 295 296 296 296 295 295 295 295 295 295 295 294 293 293 292 292 293 295 296 297 297 296 296 297 297 297 296 296 296 296 296 296 296 297 297 297 297 297 297 297 297 297 297 297 297 297 297 297 297 297 297 297 297 297 297 298 298 298 297 296 295 294 295 295 296 296 297
301 301 302 301 300 300 301 301 301 301 300 299 298 299 298 297 298 298 297 294 294 296 296 295 294 294 294 295 295 294 294 293 292 292 292 292 293 294 295 295 296 296 296 296 297 297 297 296 296 297 296 296 296 296 297 297 297 297 297 297 297 297 297 297 297 297 297 297 297 296 296 296 296 296 296 297 298 297 296 295 294 294 295 295 295 296 297
301 301 301 300 300 301 300 300 300 300 299 299 298 297 296 296 296 296 295 295 295 296 295 294 294 295 295 295 294 294 293 292 292 291 291 292 293 294 295 295 295 296 296 296 297 297 297 296 296 296 296 296 296 296 297 296 296 296 297 297 297 296 296 296 297 297 297 297 297 296 296 296 296 295 295 296 296 296 295 295 294 294 294 295 295 296 296
301 301 300 300 300 301 300 300 301 300 299 297 296 296 296 297 297 296 296 296 296 295 295 295 295 295 295 295 294 293 293 292 292 291 291 292 293 294 294 294 295 295 296 296 296 297 296 296 296 296 296 296 296 296 296 296 295 296 296 297 297 297 296 296 297 297 296 296 296 296 296 296 295 295 295 295 295 295 295 294 294 294 294 295 295 295 295
299 299 298 297 298 298 298 298 299 299 299 299 297 296 296 297 297 296 296 296 296 296 296 296 296 296 296 295 294 294 294 293 292 291 291 291 292 292 292 293 294 295 295 296 296 296 296 297 296 296 296 296 296 296 296 295 295 296 296 296 297 297 297 296 296 296 295 295 295 295 295 295 295 295 295 295 295 295 295 294 294 294 294 294 294 294 294
298 297 296 297 298 297 297 297 297 297 297 298 297 297 297 297 297 297 297 297 297 297 296 296 296 296 296 295 294 294 295 294 292 291 291 291 291 291 291 291 292 294 295 296 296 296 296 296 296 295 295 296 296 296 295 295 295 296 296 296 297 297 297 297 296 296 295 294 294 295 295 295 295 295 295 295 295 295 294 294 294 294 294 294 294 294 294
297 297 296 296 297 298 297 298 298 298 297 297 297 298 297 297 297 297 297 297 297 297 296 296 296 296 295 295 295 295 295 294 292 291 291 290 291 291 291 291 292 294 295 295 295 295 296 296 295 295 295 296 296 295 294 295 295 296 296 296 296 297 297 297 297 296 295 294 294 295 295 295 295 295 294 294 294 294 294 294 294 294 294 294 294 294 293
298 298 298 297 298 298 298 298 298 298 298 298 298 298 298 297 297 298 297 297 297 297 296 296 296 296 295 295 295 295 295 294 292 291 290 290 290 290 290 291 292 293 294 293 293 295 295 295 295 296 296 296 295 295 295 295 295 296 296 296 296 296 296 296 296 296 295 295 295 295 295 295 295 294 294 293 293 294 294 294 294 294 294 294 294 294 293
297 298 298 298 298 298 297 298 298 299 298 298 298 298 297 298 298 298 297 297 297 297 296 296 296 296 295 295 295 295 294 293 292 291 291 291 291 291 291 290 291 292 292 292 293 295 295 295 295 296 296 296 295 295 295 295 295 295 296 296 296 296 296 296 296 296 296 295 295 295 295 294 294 294 294 293 293 293 293 294 294 294 294 294 294 294 293
296 297 298 298 298 298 297 298 298 298 298 298 298 297 297 297 298 297 297 297 296 296 296 296 296 296 296 295 295 295 294 293 292 291 291 291 291 291 291 291 291 291 291 291 292 294 294 294 295 296 296 296 295 295 295 295 295 295 296 296 296 296 296 296 296 296 296 295 295 295 294 294 294 294 294 294 294 294 293 293 294 294 294 293 294 294 293
297 297 298 298 298 298 298 298 298 298 298 298 298 298 298 298 297 297 296 296 296 296 296 296 296 296 296 296 296 295 295 294 293 292 291 291 291 291 291 292 292 292 291 291 291 293 293 294 295 296 296 296 296 295 295 296 296 295 295 295 295 295 295 295 296 296 296 296 296 295 295 295 294 295 295 294 294 294 294 294 294 294 294 293 293 293 293
297 298 298 298 298 298 298 298 298 298 298 298 298 298 298 298 297 297 297 297 297 296 296 297 297 296 296 296 296 295 295 295 294 293 292 292 292 293 293 293 293 292 291 291 292 293 293 294 295 296 296 296 296 295 295 296 296 296 296 295 295 295 295 295 295 296 296 296 296 296 296 296 295 295 295 295 295 294 294 294 294 294 294 294 293 293 293
298 298 298 297 297 298 298 298 298 298 298 298 298 298 298 298 298 297 297 297 297 297 297 297 297 296 296 295 296 295 295 295 295 294 294 294 294 294 294 294 292 292 292 293 294 295 295 295 295 296 296 296 296 296 296 296 296 296 296 296 296 295 295 295 295 295 295 295 295 295 295 296 296 296 296 295 295 295 294 294 294 294 294 294 294 293 293
298 298 298 298 298 298 299 298 298 298 298 298 299 298 298 298 298 298 297 297 297 297 297 297 297 296 296 295 295 296 296 295 296 295 295 294 294 294 294 293 293 292 293 294 294 294 294 294 295 295 296 296 296 296 296 296 296 296 296 296 296 296 296 295 295 295 295 295 295 295 295 295 295 295 296 296 295 295 295 295 294 294 294 293 293 293 293
298 299 299 299 298 299 299 298 298 298 298 298 299 299 298 298 298 298 298 298 298 297 298 297 297 297 297 296 296 296 297 297 297 296 296 295 295 295 294 293 293 293 293 293 293 293 293 293 294 294 295 296 296 295 295 295 295 296 296 296 296 296 296 296 296 296 296 295 295 295 295 295 295 295 295 295 295 295 295 295 294 294 294 293 293 293 293
299 299 299 299 299 299 299 298 299 299 299 298 299 299 299 299 299 299 299 298 298 298 298 298 298 298 298 297 297 297 298 298 298 298 297 297 297 296 295 294 294 294 294 293 293 293 294 294 294 293 294 294 295 295 295 294 294 295 296 296 296 296 296 296 296 296 296 296 295 295 295 295 295 295 295 295 295 295 295 295 294 294 294 293 293 293 293
299 298 299 299 299 299 299 299 299 299 299 298 298 298 299 299 299 299 299 299 298 298 299 299 299 299 299 299 299 298 298 299 299 299 298 298 298 297 295 294 294 294 294 294 293 293 294 294 294 293 293 293 293 293 294 294 293 294 295 295 295 296 296 296 296 296 296 296 295 295 294 295 295 295 294 294 294 294 295 295 294 294 294 293 293 293 293
299 299 299 299 299 299 299 299 299 298 298 298 298 299 299 299 299 299 299 299 299 299 299 299 299 299 299 299 299 299 299 299 299 299 299 299 298 297 296 295 294 294 294 294 294 294 294 294 294 293 293 292 291 291 292 292 292 293 295 295 295 295 296 296 296 296 296 296 296 295 294 294 294 295 294 294 294 294 294 294 294 294 294 293 293 293 293
299 299 299 299 299 299 299 299 298 298 298 298 298 299 299 299 299 299 299 299 299 299 299 299 299 299 299 299 299 299 299 299 299 299 299 299 298 297 296 295 295 294 294 294 294 294 294 294 294 293 293 293 292 291 290 290 291 293 295 295 295 295 296 296 296 296 296 296 295 295 294 294 294 294 294 294 294 293 293 293 294 294 294 294 293 293 293
299 299 298 299 299 299 299 299 298 298 298 298 299 299 299 299 299 299 299 299 299 299 299 299 299 299 299 299 299 299 299 299 299 299 299 299 298 298 297 296 295 295 295 294 294 294 295 294 294 293 293 293 293 292 291 291 292 294 295 295 295 295 295 295 295 295 295 295 295 295 294 294 294 294 294 294 294 293 293 293 293 294 294 294 293 293 293
299 299 299 299 299 299 299 299 299 299 298 298 299 299 299 299 299 299 298 298 298 298 298 298 299 299 299 299 299 299 299 299 299 299 299 298 298 298 297 296 296 295 295 294 295 295 295 295 295 294 294 293 293 293 292 291 293 294 295 295 295 295 295 295 295 295 295 294 295 295 294 294 293 293 293 293 293 293 293 293 293 294 294 294 294 293 293
299 299 299 299 299 299 299 299 299 299 298 298 298 298 298 298 298 298 298 298 298 298 298 298 298 299 299 299 299 299 299 299 299 299 298 298 298 298 297 297 296 296 295 295 295 296 296 295 295 295 294 294 294 293 293 292 293 294 295 295 295 294 294 295 295 295 294 294 294 294 293 293 293 293 293 293 292 292 292 292 292 293 293 293 293 293 293
Wind_Speed
3 5 8 10 10 7 6 5 4 6 6 6 5 3 1 3 5 5 6 9 8 5 7 9 7 7 8 8 8 7 7 7 7 8 9 10 11 11 12 11 10 10 9 10 14 17 21 25 25 24 24 22 21 18 15 15 12 7 6 4 3 4 9 13 12 11 12 17 20 21 22 24 26 27 26 23 23 22 21 24 22 18 19 21 23 23 22
5 5 6 9 11 8 7 7 5 5 5 5 5 2 2 5 7 9 13 13 9 5 6 7 7 7 7 8 8 8 8 7 7 9 11 10 10 10 11 10 10 9 9 11 14 17 22 26 25 22 22 21 20 20 17 15 13 8 5 2 2 4 8 13 13 11 10 14 17 15 16 20 23 24 24 23 22 20 22 23 20 18 21 23 23 23 23
3 4 5 8 9 10 9 8 8 7 6 5 5 3 4 7 8 10 14 13 7 3 5 6 6 6 8 9 9 8 7 6 8 10 11 9 9 10 10 10 9 9 10 13 15 16 20 24 25 22 21 20 20 21 19 16 12 7 3 1 5 8 11 12 12 10 10 13 17 16 17 20 21 22 23 23 22 22 23 22 19 19 21 21 21 23 23
2 2 6 7 9 11 10 8 8 8 6 4 4 3 2 3 6 11 11 8 5 4 6 7 7 8 10 10 9 8 7 7 10 11 10 9 9 9 10 10 10 10 11 12 13 15 19 22 24 23 21 20 20 21 20 18 13 6 2 5 8 11 13 14 11 8 12 17 21 20 20 20 19 19 22 23 23 23 23 21 18 18 19 21 23 23 23
3 4 6 6 6 6 5 4 5 6 4 3 3 4 4 3 4 7 6 5 6 6 7 8 9 9 9 8 7 7 7 8 10 10 9 9 9 8 9 9 9 9 9 11 13 16 20 21 22 22 21 20 20 20 20 21 18 14 11 9 10 12 13 15 13 12 15 21 22 19 19 20 18 18 22 23 23 23 21 20 19 19 22 26 28 26 25
3 3 2 2 3 2 1 1 3 4 4 6 7 6 7 7 7 7 6 8 8 7 7 10 10 8 8 9 8 8 7 6 7 8 8 8 7 7 8 7 8 8 10 12 15 18 20 20 20 21 21 20 20 21 23 24 24 22 19 15 13 13 14 16 17 17 19 22 22 19 19 20 19 20 22 23 22 21 19 19 21 24 27 30 30 29 28
3 1 3 3 1 3 4 2 3 3 3 7 10 9 9 9 10 12 12 10 8 8 9 11 11 10 10 10 10 9 8 6 5 6 7 7 6 6 7 6 7 10 12 14 17 19 20 20 20 21 22 21 22 24 26 27 26 25 23 20 16 14 13 14 16 18 21 24 24 22 21 20 21 21 20 22 22 20 20 22 25 27 29 30 30 30 29
2 1 3 2 2 1 2 2 4 4 2 4 6 8 8 8 6 10 13 11 10 11 11 10 10 10 10 10 9 9 8 6 5 5 5 5 5 5 6 6 8 11 13 13 14 17 19 21 22 22 21 21 22 24 27 28 27 27 27 26 22 17 13 12 13 16 20 23 25 24 23 22 23 22 20 21 24 25 25 27 29 29 30 30 29 29 28
3 2 2 2 1 1 1 2 3 3 2 2 1 3 5 5 4 6 12 13 11 11 11 11 10 9 9 10 8 6 6 5 5 5 4 4 5 6 7 8 10 12 13 13 14 16 19 22 23 23 22 20 22 26 28 27 27 28 29 28 25 21 17 13 12 12 15 18 22 25 26 24 24 24 24 24 26 29 30 30 31 31 30 29 27 27 26
2 3 2 2 1 2 1 2 3 4 2 1 1 1 3 4 3 5 10 12 12 12 12 11 8 5 7 8 4 5 5 3 3 4 5 6 7 8 10 12 14 15 15 15 16 18 20 21 22 23 24 23 25 28 29 27 26 28 29 26 25 25 22 17 13 11 11 12 15 20 24 24 22 22 23 24 24 27 30 29 29 29 29 28 27 25 24
2 4 3 2 2 1 0 1 5 6 4 2 1 1 2 2 2 6 9 11 12 11 9 8 5 2 5 4 1 4 4 4 2 1 2 4 7 11 13 15 15 15 16 18 20 22 22 20 19 21 24 26 28 29 28 27 28 29 28 26 24 24 25 22 17 13 12 11 12 13 15 18 19 19 19 19 19 21 25 26 26 26 26 26 24 22 21
2 2 2 2 1 1 1 3 5 6 5 2 0 2 1 1 1 6 9 10 9 7 5 4 3 2 5 5 2 2 4 7 8 6 3 3 4 8 12 14 15 16 19 22 24 23 22 20 18 20 23 27 29 28 27 28 29 27 26 25 24 25 27 27 22 17 15 14 14 13 12 13 15 15 16 17 17 18 22 24 24 23 22 22 21 19 17
2 2 3 2 1 1 1 4 7 6 3 1 2 2 2 2 3 5 8 7 5 4 4 5 4 4 5 6 3 3 6 8 9 11 11 10 8 7 8 10 13 17 20 23 22 21 20 20 20 21 24 27 28 27 27 28 27 25 25 26 26 27 29 30 28 24 20 16 15 15 14 15 16 15 15 17 19 19 21 23 23 22 22 22 23 22 19
2 2 3 2 1 1 2 5 6 3 1 2 1 1 3 5 5 7 8 8 7 8 7 7 7 6 6 7 6 5 7 6 7 11 14 15 15 13 11 10 11 14 18 20 20 20 21 22 22 23 25 26 26 26 27 25 23 24 26 27 28 29 30 31 30 29 26 21 18 16 14 15 17 16 16 19 22 23 24 26 27 27 27 27 27 26 25
1 3 2 1 2 1 5 5 2 1 1 2 3 4 5 6 7 8 9 8 8 10 10 9 9 9 8 7 6 6 6 6 7 11 13 14 15 15 15 14 13 14 16 17 17 18 19 21 22 24 26 25 24 24 24 22 21 24 26 28 29 30 30 30 29 28 28 26 23 20 17 16 16 16 15 17 21 23 26 28 29 29 28 29 30 29 28
1 3 2 1 1 2 5 3 2 3 3 3 4 5 6 5 6 7 8 8 8 10 11 10 10 10 8 7 6 6 5 5 7 10 12 14 15 16 17 17 16 16 17 17 17 18 19 19 19 20 22 23 23 22 20 19 21 23 25 27 30 30 30 28 27 26 26 25 25 24 21 19 18 17 17 19 20 22 24 27 29 27 27 28 30 29 27
3 3 2 2 2 2 3 4 5 6 7 6 6 7 7 6 5 6 8 9 9 10 11 11 10 9 8 6 6 5 4 4 6 8 10 11 13 15 17 18 18 18 18 18 19 20 21 21 20 19 19 20 19 18 17 17 19 21 23 25 27 29 29 28 26 24 24 23 24 25 25 24 22 21 20 21 21 21 22 27 28 27 25 26 27 27 25
5 6 5 3 4 5 6 8 7 8 8 7 7 8 8 6 6 6 8 9 9 9 10 10 9 8 7 6 4 3 3 3 4 7 8 8 10 12 14 15 17 18 19 20 20 21 22 23 24 23 22 21 18 15 13 14 16 18 21 23 25 25 26 26 25 24 23 22 23 24 26 26 26 25 23 23 23 22 22 25 27 26 25 25 26 26 25
3 4 4 4 5 7 8 9 9 9 10 8 7 8 8 8 8 8 8 9 9 8 8 9 8 7 6 5 4 3 2 3 3 5 6 7 8 10 11 13 15 16 18 18 18 19 21 21 23 24 24 24 20 16 12 12 14 16 19 21 22 22 22 22 23 24 23 22 23 24 25 25 26 27 26 26 25 24 23 24 25 24 24 25 26 25 25
4 5 5 6 8 9 8 8 8 8 10 10 9 9 9 9 9 10 11 10 9 8 8 8 7 7 5 4 4 3 2 2 3 4 5 5 6 8 10 13 15 15 16 16 16 17 18 19 20 23 24 23 21 18 14 12 12 14 17 18 19 19 18 18 20 21 22 22 22 24 25 25 26 26 26 26 27 26 24 23 23 23 23 23 24 24 23
7 7 8 8 9 9 9 9 9 8 8 10 10 9 9 9 9 9 11 11 10 9 8 7 6 6 5 4 4 4 5 5 5 6 8 10 10 10 11 13 14 15 17 17 17 17 17 16 17 20 22 21 20 18 15 13 12 13 15 15 15 16 15 15 16 18 20 21 22 23 24 26 27 26 25 24 25 25 23 22 21 21 21 21 21 20 20
5 5 5 5 6 6 7 8 10 10 9 10 10 9 8 8 9 9 9 10 11 11 11 9 7 5 4 6 9 9 9 12 13 13 15 17 16 15 14 13 13 15 18 18 17 16 15 13 14 18 20 20 19 17 16 15 14 14 14 14 15 16 14 13 12 14 17 19 20 21 22 23 24 25 25 24 23 23 22 20 19 19 19 19 17 16 16
5 7 7 5 6 7 7 9 10 9 9 10 10 10 9 8 9 9 9 8 8 8 9 10 9 7 8 12 14 12 12 15 17 16 17 19 17 14 12 12 13 15 18 18 16 16 14 12 14 17 20 21 19 16 15 16 17 16 16 17 20 20 17 13 10 10 13 16 17 19 20 20 21 23 24 24 22 22 21 20 19 19 18 18 16 14 14
9 9 9 8 8 9 10 11 10 9 10 11 10 9 9 9 10 11 10 8 8 6 6 8 12 13 13 15 15 13 13 15 17 17 17 18 17 15 13 13 14 15 17 16 16 15 14 14 15 17 19 21 21 18 15 15 17 18 18 19 20 21 21 18 13 9 9 11 13 16 17 18 19 21 23 23 21 20 19 19 19 19 18 17 16 15 14
10 9 8 9 10 10 10 10 9 10 12 13 10 9 11 11 12 13 11 9 10 9 7 8 11 14 15 15 14 14 14 14 15 16 16 17 17 16 13 12 12 14 16 15 15 14 13 14 15 17 18 21 21 18 16 15 14 15 17 17 18 18 19 19 17 14 9 8 9 11 13 15 17 19 20 21 20 19 18 18 18 18 17 16 15 15 14
9 9 9 10 9 9 8 8 7 8 11 12 10 10 13 14 15 14 13 12 14 14 12 11 12 14 15 15 15 15 13 11 12 15 17 17 17 17 13 10 11 14 15 15 14 14 13 12 13 15 17 19 19 18 16 16 15 14 13 15 16 16 16 16 16 16 13 9 8 7 8 10 13 15 17 18 18 18 18 18 17 16 15 14 13 13 13
8 8 9 10 9 7 6 6 7 8 11 11 10 9 12 14 15 13 11 11 12 13 13 13 13 13 14 14 13 12 11 11 12 14 16 17 16 15 13 11 13 14 15 14 14 14 12 11 12 13 15 17 18 17 15 16 17 16 14 13 13 13 14 15 15 14 14 13 11 10 9 9 10 12 14 16 17 17 17 17 16 15 14 14 12 11 11
8 7 7 8 9 8 7 8 11 12 13 13 12 10 10 11 11 9 7 6 7 8 9 11 11 11 10 9 8 9 10 11 12 14 14 14 14 13 13 14 15 14 14 14 13 12 11 11 10 10 11 13 16 16 15 15 17 17 15 15 14 13 13 14 14 15 16 16 15 14 13 12 11 10 11 13 15 17 16 16 15 14 14 14 12 10 10
6 6 5 6 8 10 9 9 11 10 9 11 12 11 10 9 7 5 5 5 5 5 5 5 6 7 6 5 7 11 13 12 11 12 12 11 11 11 12 14 15 14 13 13 11 10 11 12 11 9 9 10 13 15 14 14 15 16 15 15 15 14 14 14 13 13 15 16 16 16 15 15 14 12 10 12 15 16 15 13 12 12 12 12 12 11 12
5 5 5 6 9 11 10 9 8 6 7 9 10 9 9 8 5 4 5 5 5 5 4 5 6 6 7 9 13 17 17 14 12 11 10 10 10 11 12 13 13 12 11 11 10 9 10 11 11 11 10 10 11 12 12 12 13 13 14 14 14 14 13 13 12 12 13 14 15 15 15 16 16 15 13 13 16 16 13 11 11 12 12 11 12 12 12
6 6 7 7 8 9 8 7 7 6 7 9 9 7 7 6 5 4 5 4 5 8 9 9 11 14 16 18 19 18 16 13 11 10 10 9 10 11 11 12 13 12 10 9 8 9 9 9 9 9 9 9 10 11 11 11 11 12 13 14 14 13 11 11 12 13 12 13 14 15 15 16 15 16 15 14 16 15 13 12 12 12 12 11 10 9 10
8 8 9 7 7 7 7 6 6 6 6 8 8 7 8 8 7 6 6 7 11 14 15 15 18 21 21 20 18 16 13 12 11 10 10 10 10 9 9 10 10 10 8 7 6 7 7 8 8 8 7 7 8 9 9 9 10 11 12 14 14 13 10 9 10 10 11 12 13 13 14 14 13 13 13 14 16 15 13 12 12 12 11 11 10 8 9
9 7 7 7 7 7 7 6 7 7 6 7 9 10 10 12 12 12 14 16 17 17 18 19 21 22 20 18 16 14 12 11 10 10 9 9 9 8 7 7 7 7 7 6 5 4 4 5 6 6 5 5 6 6 7 8 9 9 9 11 13 12 10 10 9 8 8 9 9 9 10 11 10 11 12 14 17 15 13 12 11 11 10 10 10 9 9
10 7 8 9 9 9 8 6 6 6 6 7 10 12 13 14 16 18 20 20 18 17 19 21 21 19 17 15 14 12 10 9 9 9 7 7 7 8 7 6 5 5 5 5 4 3 2 3 3 3 3 4 5 5 5 6 7 8 7 9 12 11 8 8 7 7 6 5 5 7 8 9 10 11 13 14 15 14 12 11 11 9 8 8 9 9 9
12 9 10 12 13 13 12 11 10 9 7 7 9 12 13 15 17 19 20 19 18 19 21 21 18 16 15 14 13 10 7 7 7 7 6 6 5 4 5 6 5 3 3 3 2 2 1 2 2 2 2 3 5 5 5 5 5 6 7 9 11 9 6 5 4 5 5 4 5 8 10 10 10 11 11 12 12 11 10 11 10 8 7 7 7 7 7
17 13 11 13 15 17 17 17 16 15 14 12 11 12 14 16 18 19 19 19 20 20 18 16 14 13 13 12 11 8 6 6 8 7 6 5 4 3 2 4 5 4 2 1 2 3 2 2 2 2 2 3 5 5 3 3 4 5 7 10 12 10 6 4 3 4 6 5 7 10 11 10 10 9 8 8 10 10 10 10 10 8 7 7 5 5 6
22 20 16 15 19 21 20 20 20 19 17 16 14 14 16 18 21 21 21 21 20 18 14 12 12 11 10 10 10 7 5 6 7 7 6 6 5 3 2 2 3 4 3 1 1 2 2 1 2 2 2 4 6 5 3 3 5 6 8 11 13 12 10 6 4 4 5 7 9 8 7 7 7 6 4 4 6 9 9 8 8 8 7 6 5 5 6
22 24 21 20 22 23 21 21 22 21 18 15 13 14 18 21 22 20 19 18 17 14 12 10 7 7 9 11 11 7 5 6 7 7 8 8 7 5 4 3 2 2 2 1 1 2 2 2 3 2 2 4 6 6 6 6 7 7 8 10 12 13 12 11 8 5 5 6 7 7 6 6 6 4 2 2 4 6 7 7 8 8 7 6 5 6 6
17 19 20 21 22 22 20 19 21 20 18 15 14 15 19 21 20 18 16 14 11 9 9 8 6 6 10 13 13 9 7 8 8 8 8 8 7 6 5 4 3 3 2 2 2 2 2 3 3 2 2 4 5 6 6 6 5 6 7 9 11 11 11 12 11 8 4 6 7 7 6 6 5 4 3 3 3 3 3 4 7 9 8 6 6 5 5
15 16 18 19 19 18 17 16 17 16 15 14 14 14 15 18 19 18 15 12 8 8 9 10 10 10 12 14 15 12 10 9 9 9 8 8 7 6 4 3 4 4 3 2 2 2 2 3 4 3 0 2 3 4 4 5 5 5 6 7 9 9 9 10 10 10 8 6 6 5 4 4 4 4 5 4 3 3 3 1 4 9 9 7 6 6 5
17 18 19 19 18 18 18 17 17 16 14 13 13 11 10 14 19 19 15 11 9 10 11 11 11 12 13 14 15 14 12 11 10 9 8 8 7 6 4 3 3 4 3 3 3 3 3 4 6 5 3 1 2 4 4 4 5 5 5 6 6 7 7 7 8 9 8 7 6 5 4 4 4 4 4 4 4 3 3 4 2 9 12 9 7 7 7
17 18 19 18 18 19 19 19 19 18 16 14 13 11 9 11 16 17 13 11 10 10 10 10 10 11 13 14 14 13 12 10 10 11 10 8 6 5 5 5 5 4 4 5 6 5 5 5 7 7 5 3 3 3 4 3 2 2 2 2 3 5 6 5 4 5 6 4 3 3 2 1 2 3 3 3 3 3 4 7 4 4 11 12 9 8 8
19 19 18 17 19 20 20 19 19 20 18 15 13 11 10 11 14 15 13 10 9 9 10 10 9 10 12 14 14 13 12 11 11 12 12 10 7 5 5 6 6 6 7 8 7 6 5 5 7 8 7 6 4 3 3 4 3 1 1 2 2 4 5 5 4 5 5 5 6 6 5 6 7 8 9 7 4 1 2 4 6 3 4 10 12 12 10
20 19 18 18 19 20 19 18 20 20 18 16 15 13 11 10 11 12 12 11 10 9 10 11 11 10 12 14 15 13 11 11 11 12 12 11 10 8 8 8 7 7 9 10 8 5 3 4 5 7 8 8 6 4 4 5 5 3 3 3 4 4 5 5 5 5 6 6 8 9 9 9 10 10 10 9 6 4 2 1 2 3 2 4 9 13 13
19 19 19 19 19 19 19 19 18 18 17 17 16 15 12 11 10 10 9 10 9 8 9 11 11 10 9 11 11 10 7 6 6 8 8 9 9 10 12 12 10 8 9 9 7 5 3 3 4 6 8 9 7 6 6 6 6 5 4 4 5 6 6 5 5 5 6 7 8 10 12 12 13 13 11 9 8 7 5 4 3 3 3 4 2 8 13
18 18 19 18 16 14 15 15 15 15 17 18 18 16 15 13 11 10 9 9 7 5 5 7 8 7 6 7 9 8 6 4 4 5 6 5 5 8 13 14 12 9 9 9 8 6 4 3 2 3 5 7 8 8 8 7 7 7 5 4 5 6 6 6 6 6 7 7 8 11 12 12 12 13 13 11 10 10 8 7 5 4 4 2 2 3 9
19 18 18 16 13 11 11 12 12 14 15 15 14 13 13 13 11 11 11 10 9 7 7 6 6 6 6 6 7 8 7 5 5 6 7 7 6 8 12 15 13 11 10 10 8 6 5 4 2 2 3 4 6 8 9 9 9 8 7 7 7 8 8 8 7 7 6 6 8 11 11 8 8 10 12 12 12 11 10 9 7 6 5 3 2 3 5
20 17 16 16 15 15 14 14 12 11 10 9 7 6 9 12 13 13 12 11 11 10 8 6 5 5 6 5 6 6 6 6 6 7 8 9 9 10 13 15 14 13 12 11 9 7 6 5 5 4 3 3 5 7 9 9 9 10 9 9 9 9 9 9 8 8 7 7 7 8 8 5 4 7 10 11 11 12 11 10 9 8 6 4 4 4 4
18 15 13 13 13 13 12 12 10 8 8 9 7 6 7 10 13 14 13 12 11 10 8 6 6 7 7 7 6 6 6 6 7 7 7 7 8 10 13 15 15 14 14 12 10 8 7 6 7 7 6 5 4 5 7 8 10 11 11 9 9 9 9 9 9 8 7 6 6 5 5 4 5 7 10 11 11 11 10 10 10 9 7 4 3 5 5
16 15 13 12 11 12 12 12 11 9 9 9 10 9 9 9 10 11 11 9 7 6 6 7 8 9 9 9 8 7 6 7 8 7 7 7 8 9 12 14 15 15 15 14 11 8 7 8 9 9 9 7 6 6 6 8 10 12 11 10 9 9 10 11 10 8 6 5 4 4 4 4 6 8 10 12 11 10 9 8 7 7 7 6 5 4 5
14 15 15 13 13 12 12 12 11 9 9 9 9 8 8 8 8 8 7 6 6 5 4 4 6 8 8 7 6 5 5 7 8 7 7 7 8 9 11 13 14 15 15 14 11 8 7 8 9 10 11 11 9 7 6 8 10 11 11 10 9 9 10 11 11 9 7 6 6 5 5 5 6 6 6 7 7 6 6 6 6 7 7 7 6 5 4
14 14 15 15 15 15 14 12 11 10 9 10 10 10 10 11 10 9 7 7 7 6 4 4 4 6 6 5 3 3 3 4 5 6 6 6 7 8 9 11 12 14 14 14 11 9 8 8 8 8 10 11 11 9 7 7 9 11 11 10 9 9 8 9 9 9 7 7 7 6 6 6 6 6 4 4 4 3 3 4 5 6 8 8 7 7 6
Wind_Direction
90 118 107 94 90 87 79 67 21 350 358 29 73 112 105 102 123 144 138 113 102 93 84 78 68 71 79 78 72 65 59 57 59 61 55 46 39 32 30 26 19 17 10 2 7 8 8 10 7 5 8 10 13 15 8 2 358 336 306 269 208 120 137 161 173 176 183 189 185 179 174 170 169 170 169 169 171 172 171 169 168 169 170 172 175 176 176
59 81 109 108 107 102 78 54 28 8 15 46 63 47 46 87 115 128 116 102 84 55 58 66 64 68 73 75 69 60 53 52 60 65 61 52 44 36 30 24 16 13 9 4 4 4 7 9 4 360 3 7 13 17 12 6 3 349 316 295 159 153 153 157 165 164 162 178 185 182 177 175 175 174 171 168 168 170 170 168 168 170 169 170 175 177 176
53 50 79 98 110 110 88 50 23 17 22 42 47 33 59 82 102 118 112 106 99 75 66 67 63 66 70 66 59 55 49 46 59 64 59 51 44 37 31 26 18 12 11 8 4 1 2 5 3 360 2 9 16 19 20 16 7 349 301 149 132 156 163 160 161 150 137 159 175 176 175 176 178 177 171 167 164 164 166 167 167 170 171 170 173 175 174
180 150 115 118 113 102 83 49 14 6 11 34 51 53 59 88 132 133 119 110 123 126 101 80 61 59 65 64 59 55 45 42 54 57 52 48 42 36 32 28 21 16 13 8 4 0 1 4 7 7 7 11 15 17 23 28 28 34 106 132 131 143 159 166 163 140 131 148 159 162 164 168 175 175 168 164 164 164 166 168 163 162 164 163 163 164 166
170 164 152 144 113 90 69 32 352 338 352 42 72 57 31 38 130 140 129 121 127 124 110 92 75 65 64 63 59 54 44 44 54 56 52 50 44 37 34 28 22 18 10 7 9 8 8 9 11 14 18 19 19 21 28 36 43 55 70 89 106 119 137 151 148 130 133 146 150 148 153 163 175 174 162 158 161 162 166 166 158 153 154 152 150 150 151
156 181 163 101 84 118 165 36 329 318 9 60 77 59 34 51 89 97 91 101 107 106 102 98 92 83 73 66 57 52 46 43 50 54 50 47 42 34 31 26 21 18 13 15 21 19 17 17 19 25 30 30 32 37 41 43 46 51 59 65 74 88 106 125 132 128 129 137 139 138 145 156 160 158 156 157 160 162 164 160 152 149 149 146 142 141 142
151 162 53 76 167 209 173 101 359 338 39 71 82 70 45 56 92 101 98 102 105 102 101 101 101 97 87 76 63 51 46 41 44 52 48 41 40 36 29 18 13 19 22 24 27 26 24 24 28 33 34 35 40 45 47 48 46 47 53 57 58 63 78 100 118 124 124 127 130 131 135 141 139 136 140 148 153 157 157 152 149 149 148 144 141 139 139
133 83 55 122 200 230 133 82 11 3 22 45 68 67 46 42 79 107 110 113 113 110 110 108 107 105 94 80 63 46 44 45 45 50 48 44 44 40 30 17 13 21 27 28 31 33 33 33 35 35 34 37 43 48 50 50 48 48 50 49 48 52 60 77 98 112 118 124 129 130 128 127 124 119 117 126 137 144 144 143 143 144 143 142 140 139 139
119 109 61 89 105 359 98 72 8 8 21 355 21 76 61 44 56 108 119 122 123 120 118 118 120 116 94 71 46 20 26 50 59 59 61 62 59 54 47 40 36 36 38 41 43 44 43 41 39 37 37 41 47 50 50 48 46 49 48 44 43 48 55 67 83 96 107 117 125 130 130 123 114 111 106 108 120 130 133 133 134 136 136 136 137 138 140
97 110 105 115 172 222 147 76 348 339 342 297 279 130 83 62 79 123 128 130 133 133 135 141 149 125 77 62 22 340 354 28 69 72 70 69 68 66 60 54 49 47 46 47 48 51 52 47 42 42 42 43 49 51 49 44 42 45 45 40 40 46 52 63 81 92 101 113 122 128 131 126 118 116 112 106 111 121 126 126 128 130 133 133 133 134 136
132 138 141 155 190 220 104 353 320 324 326 311 308 120 96 59 118 143 137 137 145 148 149 155 165 119 86 96 283 314 348 18 34 67 98 82 71 67 63 60 55 51 51 52 51 52 51 45 43 48 48 47 49 49 46 43 41 40 39 39 41 46 53 63 77 88 98 112 122 124 125 124 121 123 125 121 119 123 126 126 126 127 128 128 126 124 122
178 147 123 124 152 143 33 320 305 310 313 309 234 170 168 25 82 140 140 142 150 150 135 114 85 81 121 140 190 315 33 49 44 42 56 75 79 74 67 64 61 57 55 54 51 48 45 40 43 53 54 52 50 47 45 45 42 38 38 42 46 50 56 62 69 79 93 107 116 116 120 126 125 125 130 136 138 137 133 131 130 127 125 122 118 113 110
87 91 106 103 115 132 19 310 299 303 307 235 176 184 159 75 67 107 120 121 114 100 95 93 76 65 98 117 120 74 65 59 49 47 50 52 59 70 70 65 62 61 58 56 53 49 47 46 48 54 58 56 52 48 47 45 42 40 43 48 52 54 58 60 61 65 77 93 103 105 112 126 131 131 134 142 148 145 139 136 134 130 127 124 119 116 115
82 85 102 106 111 84 341 310 293 297 276 187 170 80 91 92 81 84 93 98 98 89 84 93 99 98 96 100 100 80 67 62 54 51 52 53 53 56 62 62 60 61 61 58 54 51 51 52 52 55 59 57 53 51 48 43 43 49 52 54 55 56 58 61 60 59 63 72 85 94 102 115 123 127 134 140 143 143 140 137 133 129 126 122 118 113 110
95 87 93 142 146 28 334 323 298 328 13 160 128 89 84 88 88 88 86 89 102 104 100 101 106 106 101 95 92 84 73 68 63 59 59 58 55 55 57 58 61 65 64 60 54 50 50 54 56 58 59 58 54 52 48 44 51 59 60 59 59 58 57 58 59 60 61 64 71 81 91 100 106 110 119 128 132 134 133 130 126 122 121 119 114 109 106
101 119 146 151 126 316 325 344 64 64 61 106 120 105 96 89 91 100 98 94 99 106 108 108 105 100 98 96 93 89 83 78 77 72 67 64 63 61 59 59 62 65 64 62 58 52 49 51 53 55 59 60 59 55 50 49 56 63 65 64 63 61 60 58 56 58 61 62 66 73 80 90 96 98 103 112 119 121 123 122 119 116 114 114 111 108 106
77 100 126 110 68 349 359 51 77 76 73 82 97 103 105 101 97 104 108 108 106 105 107 108 105 102 102 100 96 97 97 91 86 82 79 77 74 71 67 67 67 66 64 61 58 53 49 48 48 49 52 55 57 56 52 52 57 63 66 67 65 62 63 63 60 58 60 62 66 70 74 80 87 90 96 104 109 114 119 120 117 114 111 111 110 109 107
92 71 63 65 60 56 64 72 77 79 80 83 92 99 100 102 102 103 107 112 113 111 111 109 107 112 117 117 117 121 113 98 89 87 88 88 85 82 79 76 73 71 67 61 56 52 48 46 47 49 49 49 48 47 46 50 57 63 67 69 69 65 64 65 64 62 62 64 67 72 74 77 79 82 87 95 101 107 114 118 117 116 114 112 110 108 106
119 71 55 46 57 73 84 85 82 84 86 84 86 93 97 100 100 98 100 105 107 107 108 108 110 115 120 122 132 147 150 148 131 104 89 82 82 85 85 81 79 76 71 65 59 54 49 47 48 49 48 48 47 46 45 47 55 62 64 65 66 65 64 65 64 63 65 65 67 71 76 78 79 80 83 89 94 97 104 112 116 116 114 112 110 108 106
86 93 99 84 69 69 75 85 91 94 93 92 92 96 102 104 102 102 102 103 104 104 104 109 112 112 111 114 115 111 122 153 158 139 115 95 84 79 77 80 83 78 71 68 66 59 54 51 50 49 47 45 46 48 50 50 55 62 63 62 63 63 63 64 63 63 66 67 68 71 74 76 77 77 79 84 88 90 95 104 111 113 112 110 109 109 109
92 102 118 108 86 72 68 80 91 93 94 98 100 100 103 104 103 104 104 106 112 117 119 122 120 119 124 119 94 73 64 69 79 87 84 79 82 86 84 84 83 76 71 75 76 67 60 56 52 48 45 42 42 46 51 54 56 58 60 61 65 65 65 65 65 66 67 70 72 74 76 77 78 78 79 82 86 88 91 96 102 106 106 106 107 108 108
112 125 142 132 108 96 91 95 99 97 97 99 98 97 99 101 106 111 113 117 123 126 131 133 126 120 114 93 82 76 72 69 68 68 68 70 79 91 93 88 81 72 73 81 81 71 64 61 54 45 41 40 41 44 51 55 55 53 55 60 63 64 65 68 71 72 72 73 75 76 78 81 82 83 83 84 87 90 93 94 96 98 98 99 101 104 103
116 129 133 121 106 109 114 113 109 107 107 105 102 104 104 104 113 119 119 123 127 128 134 133 120 104 96 91 85 80 76 76 75 71 68 70 76 85 87 80 72 69 74 79 77 67 62 60 53 46 43 42 42 44 50 55 57 59 64 67 66 65 66 69 76 83 83 81 81 82 83 86 89 91 90 87 86 89 93 96 97 96 96 96 96 95 95
111 117 119 116 116 120 125 126 122 120 121 117 114 119 122 122 127 127 126 133 138 132 130 123 112 105 103 98 91 83 79 80 79 73 70 70 73 80 85 79 71 75 83 84 76 69 66 61 53 49 45 42 42 47 54 57 59 63 68 69 66 65 67 70 75 89 100 98 94 94 95 96 98 100 98 95 91 89 90 92 93 93 94 94 93 91 91
115 119 119 118 120 123 126 128 128 131 134 134 134 139 142 140 138 137 138 142 140 135 129 118 112 113 114 107 98 92 89 87 84 78 73 69 65 67 76 78 77 86 94 90 80 75 71 63 55 51 45 39 39 49 59 61 58 59 63 65 63 61 65 68 69 74 92 112 111 106 105 104 104 105 105 102 100 98 96 94 93 93 92 89 87 88 90
110 118 119 115 116 121 125 127 129 139 147 147 145 146 147 145 144 147 148 145 140 138 132 123 114 113 114 111 106 101 95 91 88 80 74 69 61 58 66 83 93 96 97 92 87 83 75 63 55 50 43 37 37 47 58 60 57 54 55 59 58 55 60 66 68 69 78 95 111 116 116 116 115 113 111 111 111 110 107 100 92 88 86 84 85 87 86
109 119 122 116 118 131 143 144 148 155 156 152 149 152 153 150 149 152 152 146 142 137 129 124 120 115 113 114 111 105 99 97 92 81 73 69 62 59 74 101 109 104 100 98 95 90 79 63 52 46 42 38 39 46 53 55 54 55 56 56 54 52 55 61 67 74 81 89 97 105 113 123 126 123 119 119 118 114 107 98 86 78 75 75 76 79 79
127 140 139 135 143 158 165 154 149 152 156 159 160 158 154 150 148 145 145 147 144 133 125 127 130 128 124 120 114 111 109 104 94 83 76 72 66 67 87 107 110 105 104 103 97 88 75 60 47 44 45 41 39 44 52 54 53 54 56 59 59 60 61 63 69 78 86 90 96 103 108 113 119 123 125 128 124 113 102 93 82 74 73 74 74 79 86
148 150 131 122 132 135 131 131 139 147 158 163 161 154 148 145 139 138 158 171 156 134 127 140 154 156 147 126 115 119 120 112 99 91 85 78 74 80 97 108 106 100 101 103 97 83 70 60 50 48 52 46 38 42 53 57 54 51 50 52 55 62 69 71 73 79 86 90 95 102 106 107 108 111 121 136 133 117 102 92 84 77 77 81 84 92 101
164 142 116 110 116 117 121 136 147 152 159 159 157 155 154 152 149 169 193 191 162 148 165 179 172 157 136 123 124 128 129 122 111 103 94 82 83 94 106 111 107 98 96 99 96 85 75 67 57 52 54 47 38 42 53 57 53 49 46 44 47 56 67 73 75 80 87 92 95 99 102 103 104 104 111 135 142 128 108 96 89 81 78 81 87 96 106
142 126 118 122 127 129 137 149 149 149 157 159 158 159 158 158 172 196 201 186 161 159 158 145 129 121 120 124 129 132 132 125 115 106 96 88 90 98 103 106 104 100 99 104 99 86 81 79 69 60 56 42 31 38 50 50 45 44 45 44 46 53 64 74 76 77 84 90 93 95 96 96 97 97 103 125 143 137 118 100 89 79 73 73 81 98 116
117 111 111 119 131 136 142 147 148 154 160 158 160 172 173 168 172 173 159 149 149 145 136 126 123 125 128 131 134 133 130 123 114 106 99 94 93 95 97 99 102 101 100 104 105 94 84 84 85 80 67 42 23 29 42 40 33 37 41 42 44 55 73 83 79 79 89 94 93 92 94 95 95 93 99 118 135 133 116 98 88 81 76 72 72 93 125
111 108 113 118 118 119 126 134 139 144 150 151 155 162 159 148 140 134 134 138 138 134 130 131 134 135 135 136 134 131 127 121 113 106 100 93 92 93 90 90 102 108 101 97 106 107 84 81 92 91 67 38 20 25 38 35 25 24 31 36 41 54 81 99 91 83 89 98 99 96 95 96 96 95 104 121 131 127 114 103 96 91 88 85 83 96 121
139 145 149 145 136 131 132 128 118 117 116 120 127 131 132 132 131 132 136 137 134 133 138 142 143 142 141 139 134 130 127 122 117 113 108 102 98 92 81 73 86 108 114 106 106 114 105 91 93 81 50 30 25 32 40 33 17 10 19 31 36 44 72 99 97 81 74 87 105 105 100 102 102 100 106 122 129 123 115 110 104 95 93 98 99 103 116
136 131 135 137 136 135 132 127 122 122 116 108 115 120 122 128 135 138 139 137 137 141 146 148 148 149 147 142 139 138 134 127 125 124 124 121 113 99 81 71 68 86 122 117 70 40 140 148 106 56 35 34 37 40 38 24 15 19 28 31 33 42 68 99 102 83 70 75 97 99 99 106 112 106 107 122 131 129 122 116 107 97 101 110 110 113 125
117 108 109 117 119 119 121 123 127 128 125 126 131 125 117 122 133 139 139 139 142 147 150 152 155 156 151 146 145 142 133 131 134 135 138 141 139 127 93 69 56 58 105 128 26 22 73 137 107 62 54 44 36 32 20 12 31 47 46 38 38 50 73 103 115 91 81 92 108 104 99 104 115 117 115 126 138 140 133 121 112 108 116 124 122 124 139
116 115 114 113 114 117 122 127 130 130 128 132 136 129 122 125 133 138 141 144 148 152 156 158 162 162 158 152 148 138 131 141 146 144 150 162 168 164 149 94 64 65 82 104 41 38 60 94 96 81 66 40 26 19 25 66 74 68 56 47 47 55 69 86 108 113 106 110 116 112 101 98 109 118 114 117 135 142 141 136 132 131 134 138 133 126 135
120 121 121 120 119 121 125 129 130 130 131 134 135 133 133 136 138 141 146 151 157 163 166 163 163 168 164 157 150 143 144 158 160 155 158 168 178 186 187 176 137 109 104 104 101 87 85 112 125 112 65 39 35 40 63 85 83 72 61 55 53 58 69 78 87 110 138 137 130 126 125 126 126 123 95 82 120 137 146 158 163 157 150 151 146 130 127
122 124 127 126 124 125 130 132 131 130 131 131 130 133 141 147 150 150 148 151 160 171 173 169 167 171 168 164 161 162 167 172 173 172 170 170 179 191 197 199 193 176 151 127 136 145 141 145 152 148 76 52 54 64 83 90 81 72 68 59 52 53 62 68 70 74 108 149 151 144 142 144 138 115 86 75 85 99 118 165 180 175 168 169 170 156 138
128 130 133 133 132 135 139 139 137 138 139 140 138 138 144 155 159 154 146 146 150 147 146 151 154 157 165 172 174 175 178 181 184 185 185 185 190 202 216 227 214 198 180 155 159 170 172 177 188 200 209 53 66 86 99 99 92 89 78 59 46 42 46 52 57 61 74 113 137 135 128 128 121 102 87 77 76 71 46 352 206 194 187 182 185 190 181
138 139 140 141 143 147 149 148 149 149 147 146 147 143 143 159 166 161 152 151 148 133 130 141 149 151 161 175 180 179 181 187 193 198 203 205 205 209 216 218 209 203 192 172 165 169 175 187 196 207 223 196 128 131 124 108 96 89 74 50 29 15 16 30 45 49 56 75 94 92 85 90 93 87 70 61 69 72 23 354 270 211 204 199 195 200 200
147 147 147 148 150 151 150 151 154 155 150 147 146 137 130 152 168 168 159 152 154 152 151 155 158 161 169 178 183 186 191 199 207 214 217 218 217 211 194 179 179 184 177 169 167 167 170 185 197 205 214 216 193 171 163 150 122 93 85 72 13 348 348 358 10 10 13 24 29 25 30 22 346 323 317 348 32 52 25 13 15 204 206 207 208 212 211
154 156 157 156 156 156 154 152 154 158 160 159 157 149 139 146 164 173 172 164 164 171 174 170 166 169 177 183 188 195 204 214 223 228 229 234 243 236 202 176 167 162 160 163 167 168 170 185 199 206 210 213 216 214 205 197 195 217 226 217 257 320 329 327 328 335 338 336 332 327 313 299 299 296 290 293 313 11 42 28 34 57 204 217 220 221 220
157 160 162 160 160 162 162 159 159 164 168 167 163 161 157 152 158 172 184 186 186 194 199 196 188 183 183 187 192 198 206 217 226 233 239 245 244 227 200 182 171 163 162 165 168 173 188 212 221 222 220 217 214 216 219 217 216 230 248 246 254 285 307 315 323 334 336 330 325 320 310 301 300 299 294 292 296 297 291 329 10 13 327 263 233 222 220
150 153 158 160 162 164 165 166 169 174 175 171 168 169 171 167 165 173 188 195 196 198 202 205 206 206 205 206 206 204 203 207 211 215 224 230 223 204 192 188 182 174 174 177 177 181 205 237 236 229 227 225 220 216 216 218 221 228 242 250 254 264 279 293 306 316 320 319 316 313 306 297 295 297 296 292 290 288 285 289 296 296 312 333 284 225 222
145 148 151 154 157 162 167 172 177 177 174 174 177 180 182 181 183 191 200 205 204 193 180 184 191 189 188 201 210 210 208 213 213 209 216 229 226 205 198 195 188 180 182 186 187 186 195 206 206 207 214 220 222 222 223 224 227 229 232 239 251 260 264 269 279 292 298 302 314 320 313 294 282 286 292 293 294 293 287 284 290 290 284 304 326 236 228
141 141 142 141 138 140 148 154 155 157 162 168 178 188 194 198 201 204 206 207 208 203 195 193 194 184 173 182 200 209 215 229 242 239 240 252 255 227 207 200 195 191 193 196 196 196 201 211 222 212 200 208 220 226 228 230 229 224 221 228 244 255 259 261 269 280 280 280 303 323 324 300 268 273 286 293 300 305 299 285 282 287 282 263 230 196 208
141 141 141 141 138 137 141 144 144 150 161 168 171 184 199 205 207 209 207 205 206 209 210 213 220 217 207 203 206 211 217 232 246 246 242 243 242 226 211 204 202 202 203 204 204 205 211 226 240 236 222 219 226 229 231 231 223 212 211 227 245 254 256 259 268 277 278 272 285 311 327 323 283 277 285 293 303 313 311 298 287 289 291 268 216 188 182
152 150 149 152 153 154 155 158 161 169 183 189 188 190 196 202 207 210 210 206 208 216 220 223 235 243 241 236 231 228 231 241 246 246 244 244 238 225 216 212 211 211 211 212 212 214 223 238 246 241 235 236 238 238 238 233 219 210 217 238 257 261 260 265 273 278 275 268 269 285 307 318 300 286 286 291 301 312 317 308 295 292 294 279 222 194 191
160 160 162 169 173 172 171 176 182 192 206 215 221 228 230 219 207 202 200 201 208 215 219 229 244 249 241 231 230 237 245 246 242 238 239 243 239 226 218 216 216 218 220 221 219 221 233 248 255 253 249 247 247 249 245 234 221 215 224 242 259 263 262 264 268 271 270 264 264 278 301 313 304 290 284 285 291 304 316 310 289 274 273 273 260 233 214
169 171 176 183 185 181 179 182 189 196 200 194 191 196 200 191 177 173 174 176 177 176 182 212 237 233 216 207 214 232 240 236 231 226 230 236 232 223 218 218 220 223 226 225 224 229 244 255 259 259 256 251 248 250 250 240 229 224 226 239 258 272 269 261 257 261 268 271 268 272 289 306 307 295 279 269 273 293 313 308 280 253 247 258 266 258 241
184 185 188 193 194 190 186 186 190 192 185 173 164 162 161 158 155 151 147 149 157 163 158 153 169 180 182 184 196 206 214 223 224 222 222 220 211 205 211 219 224 226 228 226 225 230 239 244 246 251 252 249 246 245 246 243 235 230 233 245 262 271 264 253 248 255 269 275 269 261 266 285 300 300 278 248 237 258 298 302 276 246 234 235 242 244 248